Tucson, AZ

1:24 AM MST on August 24, 2019 (GMT -0700)
Tucson International

Weather History for KTUS - May, 2019

Change the Weather History Date:

Wednesday, May 15, 2019

  Actual Average Record
Temperature  
Mean Temperature 80 °F 76 °F  
Max Temperature 96 °F 91 °F 104 °F (1934)
Min Temperature 63 °F 60 °F 43 °F (1933)
Degree Days  
Heating Degree Days 0 0  
Month to date heating degree days 0 3  
Since 1 July heating degree days 1408 1509  
Cooling Degree Days 15 11  
Month to date cooling degree days 107 134  
Year to date cooling degree days 287 288  
Growing Degree Days 30 (Base 50)    
Moisture  
Dew Point 38 °F    
Average Humidity 24    
Maximum Humidity 50    
Minimum Humidity 4    
Precipitation  
Precipitation 0.00 in 0.01 in 1.34 in (1931)
Month to date precipitation 1.21 0.11  
Year to date precipitation 5.02 2.95  
Sea Level Pressure  
Sea Level Pressure 29.80 in    
Wind  
Wind Speed 7 mph (SSW)    
Max Wind Speed 20 mph    
Max Gust Speed 26 mph    
Visibility 10 miles    
Events      
T = Trace of Precipitation, MM = Missing Value Source: NWS Daily Summary

Daily Weather History Graph

Daily Weather History Graph

Search for Another Location

Airport or City:

Astronomy

May. 15, 2019 Rise Set
Actual Time 5:26 AM MST 7:14 PM MST
Civil Twilight 4:59 AM MST 7:41 PM MST
Nautical Twilight 4:26 AM MST 8:13 PM MST
Astronomical Twilight 3:52 AM MST 8:48 PM MST
Moon 4:05 PM MST (5/15) 3:35 AM MST (5/15)
Length of Visible Light 14h 41m
Length of Day
13h 48m
Waxing Gibbous, 88% of the Moon is Illuminated
May 15
Waxing Gibbous
May 18
Full
May 26
Last Quarter
Jun 3
New
Jun 9
First Quarter

Hourly Weather History & Observations

Time (MST) Temp. Dew Point Humidity Pressure Visibility Wind Dir Wind Speed Gust Speed Precip Events Conditions
12:53 AM 70.0 °F 46.0 °F 42% 29.83 in 10.0 mi SSE 5.8 mph - N/A   Clear
1:53 AM 71.1 °F 46.0 °F 41% 29.83 in 10.0 mi SE 9.2 mph - N/A   Clear
2:53 AM 68.0 °F 45.0 °F 43% 29.84 in 10.0 mi South 6.9 mph - N/A   Clear
3:53 AM 66.0 °F 46.0 °F 48% 29.84 in 10.0 mi SSE 4.6 mph - N/A   Clear
4:53 AM 64.9 °F 46.0 °F 50% 29.84 in 10.0 mi SSE 5.8 mph - N/A   Clear
5:53 AM 64.0 °F 45.0 °F 50% 29.86 in 10.0 mi SE 8.1 mph - N/A   Clear
6:53 AM 68.0 °F 45.0 °F 43% 29.87 in 10.0 mi SE 6.9 mph - N/A   Clear
7:53 AM 73.9 °F 45.0 °F 35% 29.87 in 10.0 mi SE 6.9 mph - N/A   Clear
8:53 AM 80.1 °F 44.1 °F 28% 29.85 in 10.0 mi Variable 3.5 mph - N/A   Clear
9:53 AM 82.9 °F 43.0 °F 24% 29.85 in 10.0 mi Calm Calm - N/A   Clear
10:53 AM 86.0 °F 43.0 °F 22% 29.83 in 10.0 mi Variable 3.5 mph - N/A   Clear
11:53 AM 91.0 °F 39.9 °F 17% 29.79 in 10.0 mi WSW 6.9 mph - N/A   Clear
12:53 PM 93.0 °F 32.0 °F 12% 29.77 in 10.0 mi SW 16.1 mph 26.5 mph N/A   Clear
1:19 PM 91.9 °F 33.1 °F 12% 29.91 in 10.0 mi WNW 3.5 mph 18.4 mph N/A   Clear
1:53 PM 95.0 °F 26.1 °F 9% 29.75 in 10.0 mi SW 6.9 mph 21.9 mph N/A   Clear
2:53 PM 95.0 °F 28.0 °F 9% 29.72 in 10.0 mi WSW 6.9 mph - N/A   Clear
3:53 PM 95.0 °F 28.0 °F 9% 29.70 in 9.0 mi SW 15.0 mph 21.9 mph N/A   Clear
4:53 PM 93.9 °F 28.9 °F 10% 29.70 in 10.0 mi North - - N/A   Clear
4:56 PM 93.9 °F 28.9 °F 10% 29.84 in 10.0 mi SW 6.9 mph - N/A   Clear
5:53 PM 91.9 °F 28.9 °F 11% 29.70 in 10.0 mi SW 6.9 mph - N/A   Clear
6:53 PM 89.1 °F 28.9 °F 12% 29.71 in 10.0 mi SW 6.9 mph - N/A   Clear
7:53 PM 84.9 °F 35.1 °F 17% 29.73 in 10.0 mi West 12.7 mph - N/A   Clear
8:53 PM 82.0 °F 37.9 °F 21% 29.76 in 10.0 mi West 8.1 mph 21.9 mph N/A   Clear
9:53 PM 78.1 °F 39.0 °F 25% 29.79 in 10.0 mi Calm Calm - N/A   Clear
10:53 PM 78.1 °F 37.9 °F 24% 29.79 in 10.0 mi Calm Calm - N/A   Clear
11:53 PM 75.9 °F 37.9 °F 25% 29.78 in 10.0 mi SE 8.1 mph - N/A   Clear